FW2876 Weather Reports


time (UTC)temp
C
wind
direction
speed
KPH
gust
KPH
rain 1hr
cm
rain 24hr
cm
rain mn
cm
humidity
%
barometer
mb
20260510021544 28 360 19.3 27.4 0.00 0.00 0.00 26 1005.4
20260510020049 29 360 16.1 27.4 0.00 0.00 0.00 24 1005.4
20260510014543 29 360 16.1 29.0 0.00 0.00 0.00 23 1005.1
20260510013048 30 360 20.9 30.6 0.00 0.00 0.00 23 1005.0
20260510011542 30 360 19.3 35.4 0.00 0.00 0.00 22 1005.0
20260510010057 31 360 19.3 35.4 0.00 0.00 0.00 21 1004.9
20260510004540 31 360 20.9 37.0 0.00 0.00 0.00 20 1004.9
20260510003039 31 360 22.5 32.2 0.00 0.00 0.00 20 1005.0
20260510001538 32 360 20.9 32.2 0.00 0.00 0.00 19 1005.1
20260510000042 32 360 17.7 38.6 0.00 0.00 0.00 19 1005.2
20260509234553 33 360 17.7 29.0 0.00 0.00 0.00 17 1005.2
20260509233036 33 360 17.7 29.0 0.00 0.00 0.00 17 1005.2
20260509231536 33 360 25.7 48.3 0.00 0.00 0.00 16 1005.1
20260509230034 33 360 16.1 32.2 0.00 0.00 0.00 16 1005.3
20260509224533 33 360 17.7 32.2 0.00 0.00 0.00 15 1005.6
20260509223032 33 360 12.9 30.6 0.00 0.00 0.00 16 1005.8
20260509221548 33 360 17.7 32.2 0.00 0.00 0.00 15 1005.8
20260509220029 33 360 16.1 27.4 0.00 0.00 0.00 16 1006.0
20260509214527 33 360 11.3 30.6 0.00 0.00 0.00 17 1006.1
20260509213028 33 360 19.3 38.6 0.00 0.00 0.00 18 1006.3
20260509211526 33 360 29.0 43.5 0.00 0.00 0.00 18 1006.5
20260509210025 33 117 12.9 30.6 0.00 0.00 0.00 17 1006.4
20260509204522 33 360 17.7 35.4 0.00 0.00 0.00 17 1006.8
20260509203021 33 360 9.7 32.2 0.00 0.00 0.00 17 1007.0
20260509201518 33 360 14.5 27.4 0.00 0.00 0.00 19 1007.2
20260509200016 33 360 16.1 33.8 0.00 0.00 0.00 19 1007.3
20260509194517 33 360 1.6 35.4 0.00 0.00 0.00 19 1007.6
20260509193013 33 360 14.5 27.4 0.00 0.00 0.00 19 1007.8
20260509191511 32 360 8.0 35.4 0.00 0.00 0.00 20 1007.8
20260509190008 32 111 16.1 29.0 0.00 0.00 0.00 23 1008.0
20260509184518 32 360 16.1 27.4 0.00 0.00 0.00 23 1008.1
20260509183005 32 360 17.7 29.0 0.00 0.00 0.00 22 1008.5
20260509181503 31 232 14.5 29.0 0.00 0.00 0.00 23 1008.6
20260509180001 31 360 9.7 29.0 0.00 0.00 0.00 24 1008.9
20260509174559 31 360 16.1 29.0 0.00 0.00 0.00 24 1009.0
20260509173108 31 360 11.3 30.6 0.00 0.00 0.00 26 1009.2
20260509171612 30 360 14.5 33.8 0.00 0.00 0.00 28 1009.3
20260509170055 30 239 16.1 29.0 0.00 0.00 0.00 28 1009.3
20260509164554 30 242 17.7 27.4 0.00 0.00 0.00 30 1009.4
20260509163056 29 360 16.1 27.4 0.00 0.00 0.00 34 1009.6
20260509161547 28 256 17.7 29.0 0.00 0.00 0.00 36 1009.8
20260509160044 28 360 19.3 27.4 0.00 0.00 0.00 37 1009.9
20260509154542 27 360 19.3 27.4 0.00 0.00 0.00 40 1010.0
20260509153039 27 360 17.7 27.4 0.00 0.00 0.00 43 1010.2
20260509151536 26 360 12.9 22.5 0.00 0.00 0.00 48 1010.2
20260509150032 25 232 17.7 27.4 0.00 0.00 0.00 49 1010.4
20260509144529 24 360 16.1 25.7 0.00 0.00 0.00 52 1010.4
20260509143025 23 236 14.5 25.7 0.00 0.00 0.00 54 1010.5
20260509141528 22 360 17.7 25.7 0.00 0.00 0.00 55 1010.8
20260509140031 22 360 19.3 25.7 0.00 0.00 0.00 55 1010.9
20260509134518 21 360 16.1 25.7 0.00 0.00 0.00 55 1011.2
20260509133018 21 360 11.3 19.3 0.00 0.00 0.00 57 1011.1
20260509131518 20 230 9.7 19.3 0.00 0.00 0.00 58 1011.1
20260509130025 20 360 6.4 16.1 0.00 0.00 0.00 60 1011.1
20260509124525 19 360 8.0 20.9 0.00 0.00 0.00 61 1010.7
20260509123020 19 360 14.5 22.5 0.00 0.00 0.00 61 1010.5
20260509121514 19 360 14.5 20.9 0.00 0.00 0.00 60 1010.2
20260509120010 20 360 17.7 32.2 0.00 0.00 0.00 60 1010.0
20260509114508 20 360 11.3 20.9 0.00 0.00 0.00 61 1009.9
20260509113009 20 360 8.0 17.7 0.00 0.00 0.00 63 1009.8
20260509111508 19 360 4.8 12.9 0.00 0.00 0.00 63 1009.2
20260509110017 19 360 4.8 19.3 0.00 0.00 0.00 63 1009.4
20260509104507 19 360 11.3 24.1 0.00 0.00 0.00 63 1009.1
20260509103006 20 360 11.3 25.7 0.00 0.00 0.00 63 1009.0
20260509101510 20 360 25.7 33.8 0.00 0.00 0.00 63 1008.9
20260509100005 20 360 24.1 30.6 0.00 0.00 0.00 64 1008.8
20260509094503 20 360 22.5 33.8 0.00 0.00 0.00 64 1009.0
20260509093006 19 360 20.9 32.2 0.00 0.00 0.00 65 1008.9
20260509091501 19 360 17.7 29.0 0.00 0.00 0.00 64 1009.0
20260509090106 19 360 22.5 27.4 0.00 0.00 0.00 63 1009.1
20260509084604 19 360 16.1 22.5 0.00 0.00 0.00 62 1009.3
20260509083057 20 360 8.0 14.5 0.00 0.00 0.00 64 1009.6
20260509081555 20 360 9.7 16.1 0.00 0.00 0.00 63 1009.7
20260509080056 20 360 11.3 20.9 0.00 0.00 0.00 59 1009.8
20260509074601 20 360 16.1 22.5 0.00 0.00 0.00 60 1010.0
20260509073054 20 360 12.9 17.7 0.00 0.00 0.00 61 1010.3
20260509071555 19 360 17.7 24.1 0.00 0.00 0.00 62 1010.4
20260509070055 20 360 6.4 8.0 0.00 0.00 0.00 60 1009.1
20260509064545 21 360 6.4 14.5 0.00 0.00 0.00 58 1008.9
20260509063043 21 360 8.0 12.9 0.00 0.00 0.00 58 1009.2
20260509061542 21 234 6.4 12.9 0.00 0.00 0.00 58 1009.0
20260509060040 21 234 8.0 11.3 0.00 0.00 0.00 57 1009.1
20260509054548 21 360 4.8 12.9 0.00 0.00 0.00 56 1009.2
20260509053124 22 360 3.2 9.7 0.00 0.00 0.00 55 1009.5
20260509051545 22 360 8.0 17.7 0.00 0.00 0.00 54 1009.6
20260509050039 22 360 11.3 33.8 0.00 0.00 0.00 54 1009.1
20260509044530 22 229 9.7 20.9 0.00 0.00 0.00 54 1008.8
20260509043030 22 360 16.1 25.7 0.00 0.00 0.00 54 1008.4
20260509041529 22 360 20.9 30.6 0.00 0.00 0.00 54 1008.3
20260509040028 22 360 16.1 32.2 0.00 0.00 0.00 54 1008.2
20260509034528 22 360 14.5 30.6 0.00 0.00 0.00 54 1007.9
20260509033027 22 360 17.7 27.4 0.00 0.00 0.00 54 1007.9
20260509031526 23 360 11.3 24.1 0.00 0.00 0.00 53 1007.7
20260509030032 23 360 12.9 24.1 0.00 0.00 0.00 53 1007.6
20260509024525 23 360 11.3 24.1 0.00 0.00 0.00 52 1007.6
20260509023029 23 360 11.3 25.7 0.00 0.00 0.00 52 1007.5